Location: ???????
(56.2167°N, 38.0500°E)
Time: 07:07:47
(UTC+00:00)

COSMOS 2406 - Pass Details

Date: 19 May 2025
Orbit: 845 x 859 km, 71.0° (Epoch: 15 June)

Event Time Altitude Azimuth Distance (km) Brightness Sun altitude
Exits shadow 20:17:10 15° 186° (S) 2,143 4.7 -12.5°
Maximum altitude 20:21:43 52° 115° (ESE) 1,058 3.5 -12.7°
Drops below altitude 10° 20:27:15 10° 41° (NE) 2,494 6.2 -12.9°
Sets 20:29:46 0° 36° (NE) 3,436 7.0 -13.0°
